Molokai, HI

4:47 PM HST on April 19, 2018 (GMT -1000)
Molokai

Weather History for PHMK - November, 2013

Change the Weather History Date:

Monday, November 25, 2013

  Actual Average Record
Temperature  
Mean Temperature 76 °F -  
Max Temperature 81 °F 80 °F 90 °F (1979)
Min Temperature 71 °F 67 °F 58 °F (1958)
Cooling Degree Days 11    
Growing Degree Days 26 (Base 50)    
Moisture  
Dew Point 64 °F    
Average Humidity 68    
Maximum Humidity 78    
Minimum Humidity 52    
Precipitation  
Precipitation 0.00 in - - ()
Sea Level Pressure  
Sea Level Pressure 30.03 in    
Wind  
Wind Speed 10 mph (NE)    
Max Wind Speed 16 mph    
Max Gust Speed 25 mph    
Visibility 10 miles    
Events      
Averages and records for this station are not official NWS values.
T = Trace of Precipitation, MM = Missing Value Source: NWS Daily Summary

Daily Weather History Graph

Daily Weather History Graph

Search for Another Location

Airport or City:

Astronomy

Nov. 25, 2013 Rise Set
Actual Time 6:45 AM HST 5:45 PM HST
Civil Twilight 6:21 AM HST 6:09 PM HST
Nautical Twilight 5:54 AM HST 6:36 PM HST
Astronomical Twilight 5:27 AM HST 7:03 PM HST
Moon No Moon Rise 12:37 PM HST (11/25)
Length of Visible Light 11h 47m
Length of Day
10h 59m
Waning Gibbous, 49% of the Moon is Illuminated
Nov 25
Waning Gibbous
Dec 2
New
Dec 9
First Quarter
Dec 16
Full
Dec 25
Last Quarter

Hourly Weather History & Observations

Time (HST) Temp. Heat Index Dew Point Humidity Pressure Visibility Wind Dir Wind Speed Gust Speed Precip Events Conditions
12:54 AM 71.1 °F - 64.0 °F 78% 30.00 in 10.0 mi ENE 5.8 mph - N/A   Clear
1:54 AM 72.0 °F - 64.0 °F 76% 29.99 in 10.0 mi NE 3.5 mph - N/A   Clear
2:54 AM 72.0 °F - 64.0 °F 76% 29.98 in 10.0 mi NE 8.1 mph - N/A   Clear
3:54 AM 72.0 °F - 64.9 °F 78% 30.00 in 10.0 mi Variable 6.9 mph - 0.00 in   Mostly Cloudy
4:54 AM 73.0 °F - 64.0 °F 73% 30.00 in 10.0 mi NE 6.9 mph - N/A   Scattered Clouds
5:54 AM 72.0 °F - 64.0 °F 76% 30.01 in 10.0 mi NE 8.1 mph - N/A   Partly Cloudy
6:54 AM 72.0 °F - 63.0 °F 73% 30.03 in 10.0 mi NNE 8.1 mph - N/A   Scattered Clouds
7:54 AM 75.0 °F - 63.0 °F 66% 30.05 in 10.0 mi NE 11.5 mph - N/A   Partly Cloudy
8:54 AM 77.0 °F - 63.0 °F 62% 30.06 in 10.0 mi NE 13.8 mph 20.7 mph N/A   Partly Cloudy
9:54 AM 79.0 °F - 63.0 °F 58% 30.06 in 10.0 mi NE 13.8 mph 20.7 mph N/A   Partly Cloudy
10:54 AM 80.1 °F 81.2 °F 62.1 °F 54% 30.04 in 10.0 mi NE 13.8 mph 25.3 mph N/A   Partly Cloudy
11:54 AM 80.1 °F 81.2 °F 62.1 °F 54% 30.02 in 10.0 mi NNE 13.8 mph 23.0 mph N/A   Partly Cloudy
12:54 PM 81.0 °F 82.2 °F 63.0 °F 54% 30.00 in 10.0 mi NNE 13.8 mph 21.9 mph N/A   Clear
1:54 PM 81.0 °F 81.9 °F 62.1 °F 52% 29.98 in 10.0 mi NE 15.0 mph 23.0 mph N/A   Partly Cloudy
2:54 PM 79.0 °F - 62.1 °F 56% 29.98 in 10.0 mi NE 16.1 mph 25.3 mph N/A   Partly Cloudy
3:54 PM 78.1 °F - 63.0 °F 60% 29.99 in 10.0 mi NE 16.1 mph 24.2 mph N/A   Clear
4:54 PM 75.9 °F - 63.0 °F 64% 30.00 in 10.0 mi NE 15.0 mph 21.9 mph N/A   Partly Cloudy
5:54 PM 73.9 °F - 64.0 °F 71% 30.02 in 10.0 mi NE 9.2 mph 17.3 mph N/A   Clear
6:54 PM 73.9 °F - 64.9 °F 73% 30.05 in 10.0 mi NNE 11.5 mph 18.4 mph N/A   Clear
7:54 PM 73.9 °F - 64.9 °F 73% 30.07 in 10.0 mi NE 11.5 mph 18.4 mph N/A   Partly Cloudy
8:54 PM 73.9 °F - 66.0 °F 76% 30.09 in 10.0 mi NE 12.7 mph - N/A   Mostly Cloudy
9:54 PM 73.9 °F - 66.0 °F 76% 30.10 in 10.0 mi NE 12.7 mph 24.2 mph N/A   Partly Cloudy
10:54 PM 73.9 °F - 66.0 °F 76% 30.10 in 10.0 mi NE 13.8 mph 19.6 mph N/A   Overcast
11:54 PM 73.9 °F - 66.0 °F 76% 30.10 in 10.0 mi NE 11.5 mph 19.6 mph N/A   Overcast